Date String (YYYY-MM-DD hh:mm:ss) UTC,Instrument flags,absolute air pressure of the measurement (hPa),sample flow rate (lpm),inlet stack bypass flow (lpm),air temperature of the measurement (°C),ambient temperature measured by the external sensor (°C),aerosol sample conditioner tube jacket temperature (°C),OPC LED temperature (°C),internal box temperature (°C),relative humidity of the measurement (%),span deviation,mass concentration of particles derived from Lorenz-Mie calculation of OPC scattering (μg/m³),mass concentration of particles derived from Lorenz-Mie calculation of OPC scattering (μg/m³),mass concentration of particles derived from Lorenz-Mie calculation of OPC scattering (μg/m³)
DateTimeUTC,F1_M11,P_M11,Q1_M11,Q2_M11,T1_M11,T2_M11,T3_M11,T4_M11,T5_M11,U1_M11,ZSPAN_M11,X0_M11,X2_M11,X1_M11
2024-05-13 15:00:00,SystemResetWarning,0828.6,5.00,000.00,025.0,024.4,000.0,033.2,026.8,025.4,0000.0,0007.46,0003.44,0002.86
2024-05-13 15:01:00,SystemResetWarning,0828.6,4.99,000.00,025.1,024.5,000.0,033.2,026.9,025.9,0000.0,0006.83,0003.46,0002.87
2024-05-13 15:02:00,SystemResetWarning,0828.6,5.00,000.00,025.1,024.6,000.0,033.3,026.9,025.8,0000.0,0007.25,0003.48,0002.87
2024-05-13 15:03:00,SystemResetWarning,0828.6,5.00,000.00,025.2,024.7,000.0,033.3,026.9,025.7,0000.0,0007.67,0003.52,0002.88
2024-05-13 15:04:00,SystemResetWarning,0828.5,5.00,000.00,025.2,024.7,000.0,033.3,027.0,025.3,0000.0,0007.83,0003.51,0002.89
2024-05-13 15:05:00,SystemResetWarning,0828.5,5.01,000.00,025.2,024.8,000.0,033.4,027.0,025.8,0000.0,0007.89,0003.50,0002.89
2024-05-13 15:06:00,SystemResetWarning,0828.5,5.01,000.00,025.3,024.8,000.0,033.4,027.1,025.6,0000.0,0007.85,0003.49,0002.90
2024-05-13 15:07:00,SystemResetWarning,0828.5,5.00,000.00,025.3,024.9,000.0,033.4,027.1,024.9,0000.0,0008.11,0003.47,0002.88
2024-05-13 15:08:00,SystemResetWarning,0828.5,4.99,000.00,025.4,024.9,000.0,033.4,027.2,023.9,0000.0,0008.06,0003.43,0002.86
2024-05-13 15:09:00,SystemResetWarning,0828.5,4.99,000.00,025.4,025.0,000.0,033.5,027.2,024.1,0000.0,0008.07,0003.40,0002.85
2024-05-13 15:10:00,SystemResetWarning,0828.6,5.01,000.00,025.4,025.0,000.0,033.5,027.2,024.5,0000.0,0008.01,0003.38,0002.84
2024-05-13 15:11:00,SystemResetWarning,0828.5,5.00,000.00,025.4,024.3,000.0,033.6,026.8,024.5,0000.0,0008.02,0003.39,0002.83
2024-05-13 15:12:00,SystemResetWarning,0828.4,5.01,000.00,025.1,022.5,000.0,033.6,026.0,025.9,0000.0,0008.13,0003.40,0002.83
2024-05-13 15:13:00,SystemResetWarning,0828.4,5.01,000.00,024.8,022.3,000.0,033.6,025.8,026.1,0000.0,0007.85,0003.40,0002.84
2024-05-13 15:14:00,SystemResetWarning,0828.4,4.99,000.00,024.7,022.6,000.0,033.5,025.9,026.1,0000.0,0007.26,0003.37,0002.83
2024-05-13 15:15:00,SystemResetWarning,0828.4,5.00,000.00,024.7,022.9,000.0,033.4,026.1,026.5,0000.0,0006.80,0003.39,0002.83
2024-05-13 15:16:00,SystemResetWarning,0828.4,5.00,000.00,024.7,023.2,000.0,033.3,026.3,026.1,0000.0,0006.80,0003.39,0002.84
2024-05-13 15:17:00,SystemResetWarning,0828.4,5.00,000.00,024.8,023.5,000.0,033.3,026.4,026.6,0000.0,0006.76,0003.41,0002.84
2024-05-13 15:18:00,SystemResetWarning,0828.4,4.99,000.00,024.8,023.7,000.0,033.2,026.5,026.9,0000.0,0006.28,0003.40,0002.85
2024-05-13 15:19:00,SystemResetWarning,0828.3,4.99,000.00,024.9,023.9,000.0,033.2,026.6,027.4,0000.0,0006.17,0003.43,0002.85
2024-05-13 15:20:00,SystemResetWarning,0828.4,5.01,000.00,024.9,024.0,000.0,033.2,026.6,027.5,0000.0,0006.22,0003.45,0002.87
2024-05-13 15:21:00,SystemResetWarning,0828.4,5.01,000.00,024.9,024.2,000.0,033.2,026.7,027.5,0000.0,0006.30,0003.51,0002.91
2024-05-13 15:22:00,SystemResetWarning,0828.4,4.98,000.00,025.0,024.3,000.0,033.2,026.7,027.8,0000.0,0006.44,0003.54,0002.94
2024-05-13 15:23:00,SystemResetWarning,0828.4,5.00,000.00,025.0,024.4,000.0,033.2,026.8,028.0,0000.0,0006.56,0003.56,0002.97
2024-05-13 15:24:00,SystemResetWarning,0828.4,5.01,000.00,025.1,024.5,000.0,033.3,026.8,028.1,0000.0,0007.53,0003.54,0002.97
2024-05-13 15:25:00,SystemResetWarning,0828.4,5.01,000.00,025.1,024.5,000.0,033.3,026.9,028.1,0000.0,0007.92,0003.56,0003.00
2024-05-13 15:26:00,SystemResetWarning,0828.4,5.00,000.00,025.1,024.6,000.0,033.3,026.9,027.7,0000.0,0007.83,0003.55,0003.02
2024-05-13 15:27:00,SystemResetWarning,0828.4,4.99,000.00,025.2,024.7,000.0,033.3,027.0,027.2,0000.0,0007.67,0003.55,0003.04
2024-05-13 15:28:00,SystemResetWarning,0828.4,4.99,000.00,025.2,024.7,000.0,033.4,027.0,027.2,0000.0,0007.66,0003.53,0003.03
2024-05-13 15:29:00,SystemResetWarning,0828.4,4.99,000.00,025.3,024.8,000.0,033.4,027.0,026.5,0000.0,0007.74,0003.54,0003.03
2024-05-13 15:30:00,SystemResetWarning,0828.4,5.01,000.00,025.3,024.8,000.0,033.4,027.1,025.9,0000.0,0007.82,0003.56,0003.04
2024-05-13 15:31:00,SystemResetWarning,0828.4,4.99,000.00,025.2,023.6,000.0,033.5,026.5,025.5,0000.0,0007.86,0003.56,0003.03
2024-05-13 15:32:00,SystemResetWarning,0828.3,5.01,000.00,024.8,022.1,000.0,033.5,025.7,025.3,0000.0,0008.11,0003.58,0003.01
2024-05-13 15:33:00,SystemResetWarning,0828.3,5.01,000.00,024.6,022.1,000.0,033.5,025.6,025.0,0000.0,0008.52,0003.60,0002.98
2024-05-13 15:34:00,SystemResetWarning,0828.4,5.00,000.00,024.6,022.5,000.0,033.3,025.7,025.0,0000.0,0008.48,0003.60,0002.97
2024-05-13 15:35:00,SystemResetWarning,0828.4,5.00,000.00,024.6,022.8,000.0,033.2,026.0,024.9,0000.0,0007.72,0003.58,0002.94
2024-05-13 15:36:00,SystemResetWarning,0828.4,4.99,000.00,024.6,023.1,000.0,033.1,026.2,024.9,0000.0,0007.46,0003.58,0002.91
2024-05-13 15:37:00,SystemResetWarning,0828.4,4.99,000.00,024.7,023.4,000.0,033.1,026.3,024.9,0000.0,0007.41,0003.55,0002.88
2024-05-13 15:38:00,SystemResetWarning,0828.4,5.00,000.00,024.7,023.6,000.0,033.1,026.4,024.3,0000.0,0007.83,0003.55,0002.85
2024-05-13 15:39:00,SystemResetWarning,0828.4,5.00,000.00,024.7,023.8,000.0,033.1,026.5,024.1,0000.0,0007.94,0003.57,0002.83
2024-05-13 15:40:00,SystemResetWarning,0828.3,5.00,000.00,024.8,024.0,000.0,033.1,026.6,023.8,0000.0,0007.86,0003.54,0002.81
2024-05-13 15:41:00,SystemResetWarning,0828.3,5.01,000.00,024.8,024.1,000.0,033.1,026.6,022.9,0000.0,0008.12,0003.50,0002.79
2024-05-13 15:42:00,SystemResetWarning,0828.3,5.00,000.00,024.9,024.2,000.0,033.1,026.7,024.0,0000.0,0008.92,0003.48,0002.77
2024-05-13 15:43:00,SystemResetWarning,0828.3,4.99,000.00,024.9,024.3,000.0,033.1,026.8,023.7,0000.0,0009.17,0003.46,0002.77
2024-05-13 15:44:00,SystemResetWarning,0828.3,4.99,000.00,025.0,024.4,000.0,033.1,026.8,023.0,0000.0,0008.76,0003.41,0002.75
2024-05-13 15:45:00,SystemResetWarning,0828.3,5.01,000.00,025.0,024.5,000.0,033.1,026.8,023.4,0000.0,0008.91,0003.38,0002.74
2024-05-13 15:46:00,SystemResetWarning,0828.3,5.01,000.00,025.1,024.6,000.0,033.2,026.9,023.9,0000.0,0009.05,0003.40,0002.73
2024-05-13 15:47:00,SystemResetWarning,0828.3,5.00,000.00,025.1,024.7,000.0,033.2,027.0,023.9,0000.0,0009.15,0003.39,0002.73
2024-05-13 15:48:00,SystemResetWarning,0828.3,4.99,000.00,025.2,024.7,000.0,033.2,027.0,023.3,0000.0,0009.36,0003.43,0002.73
2024-05-13 15:49:00,SystemResetWarning,0828.3,4.99,000.00,025.2,024.8,000.0,033.3,027.1,022.9,0000.0,0009.23,0003.46,0002.73
2024-05-13 15:50:00,SystemResetWarning,0828.3,4.99,000.00,025.3,024.8,000.0,033.3,027.1,022.7,0000.0,0009.44,0003.44,0002.73
2024-05-13 15:51:00,SystemResetWarning,0828.3,5.00,000.00,025.3,024.8,000.0,033.3,027.1,022.5,0000.0,0009.87,0003.46,0002.75
2024-05-13 15:52:00,SystemResetWarning,0828.2,5.00,000.00,025.1,023.2,000.0,033.4,026.2,023.0,0000.0,0009.71,0003.46,0002.73
2024-05-13 15:53:00,SystemResetWarning,0828.2,5.01,000.00,024.8,022.1,000.0,033.5,025.6,023.9,0000.0,0008.73,0003.46,0002.74
2024-05-13 15:54:00,SystemResetWarning,0828.1,5.01,000.00,024.6,022.3,000.0,033.4,025.6,024.6,0000.0,0008.39,0003.43,0002.74
2024-05-13 15:55:00,SystemResetWarning,0828.2,5.00,000.00,024.6,022.6,000.0,033.2,025.8,025.0,0000.0,0008.25,0003.46,0002.75
2024-05-13 15:56:00,SystemResetWarning,0828.2,5.00,000.00,024.6,022.9,000.0,033.2,026.1,025.6,0000.0,0008.28,0003.51,0002.76
2024-05-13 15:57:00,SystemResetWarning,0828.2,4.99,000.00,024.6,023.2,000.0,033.1,026.2,025.2,0000.0,0009.01,0003.52,0002.78
2024-05-13 15:58:00,SystemResetWarning,0828.2,4.99,000.00,024.7,023.5,000.0,033.1,026.3,025.3,0000.0,0009.80,0003.53,0002.78
2024-05-13 15:59:00,SystemResetWarning,0828.2,4.98,000.00,024.7,023.7,000.0,033.1,026.4,024.6,0000.0,0010.30,0003.55,0002.79
